Regional Weather Roundup
Issued by NWS Goodland, KS

Home | Current Version | Previous Version | Graphics & Text | Print | Product List | Glossary On
Versions: 1 2 3 4 5 6 7 8 9 10 11 12 13 14 15 16 17 18 19 20 21 22 23 24 25 26 27 28 29 30 31 32 33 34 35 36 37 38 39 40 41 42 43 44 45 46 47 48 49 50
000
ASUS43 KGLD 200259
RWRGLD

GOODLAND FORECAST AREA HOURLY WEATHER ROUNDUP
NATIONAL WEATHER SERVICE GOODLAND KS
800 PM MST SUN FEB 19 2017

...OFFICIAL OBSERVATIONS...

CITY           SKY/WX    TMP DP  RH WIND       PRES   REMARKS
GOODLAND KS    PTCLDY    55  34  45 S18       29.66R
HILL CITY KS   MOCLDY    57  53  86 S10       29.74R
IMPERIAL NEB   CLOUDY    63  27  25 S24G33    29.58F
MCCOOK NEB     PTCLDY    61  50  67 S17G28    29.68R
AKRON CO       CLOUDY    54  27  35 S18G30    29.61R
BURLINGTON CO  MOCLDY    56  28  34 S21       29.67S
LIMON CO       CLOUDY    47  31  53 S13G25    29.65R
$$

...UNOFFICIAL OBSERVATIONS...

CITY           SKY/WX    TMP DP  RH WIND       PRES   REMARKS
LENORA KS        N/A     56  32  40 S10         N/A
NORTON KS      MOCLDY    55  46  71 SE12      29.73S
SHARON SPRINGS   N/A     58  32  38 S30G40      N/A
TRENTON NEB      N/A     56  32  40 S10         N/A
KIT CARSON CO    N/A     53  33  46 MISG        N/A
YUMA CO        FAIR      55  30  38 S22G29    29.60S
$$




USA.gov is the U.S. government's official web portal to all federal, state and local government web resources and services.